Wind_Speed
26 27 32 29 28 26 22 22 24 21 17 16 17 17 15 14 14 14 11 11 10 10 13 11 9 5 10 12 13 13 11 11 9 8 8 8 7 7 8 10 12 12 12 11
26 35 28 27 27 26 23 23 24 21 16 17 19 19 17 18 13 14 13 13 14 15 13 11 10 7 9 11 13 13 13 12 12 11 10 10 11 10 10 11 12 13 13 12
33 21 27 29 29 30 28 28 24 23 17 19 19 22 21 19 17 13 11 12 15 18 14 14 12 11 10 13 13 14 14 13 13 11 10 10 9 10 8 9 11 12 13 13
31 28 23 29 35 33 32 27 24 22 22 24 20 24 22 20 18 17 17 20 16 18 16 16 16 16 10 13 16 18 18 15 15 13 11 8 9 8 11 13 15 15 14 13
37 25 29 29 35 32 34 24 23 23 24 23 21 18 23 16 20 19 18 19 23 16 16 13 14 15 15 14 14 18 20 18 17 14 12 10 8 7 13 15 14 15 15 15
34 25 27 31 26 31 26 21 19 20 21 24 28 26 26 23 19 18 16 19 26 20 18 16 15 18 18 15 14 17 19 19 19 18 15 13 12 11 15 15 14 16 17 16
33 35 28 29 27 27 30 25 22 17 18 16 24 27 28 14 17 15 16 13 24 24 21 17 12 12 14 16 16 15 14 17 19 20 17 16 15 17 15 13 16 18 18 17
38 29 38 29 36 29 33 32 21 17 14 17 18 16 28 20 18 16 15 19 21 25 23 20 15 12 11 14 15 15 15 16 16 17 16 17 18 21 14 23 18 20 20 20
29 44 20 34 31 32 34 42 34 26 13 16 22 21 18 15 15 15 18 21 21 25 24 22 19 14 8 12 15 15 16 16 16 19 19 19 19 24 17 20 20 22 24 25
33 25 32 28 28 30 32 29 27 30 19 18 26 23 19 20 18 18 16 21 22 22 27 25 21 15 10 10 16 19 20 20 20 20 22 19 18 21 22 23 21 23 25 26
43 28 20 27 40 40 30 29 35 32 30 16 15 23 21 20 16 19 20 16 21 26 25 25 20 15 13 13 15 17 20 21 23 23 21 21 19 20 22 22 23 26 28 28
48 35 32 34 31 34 41 40 36 27 26 33 28 24 11 17 21 18 19 20 22 23 26 22 17 16 17 15 12 10 14 17 19 21 24 23 24 26 26 24 27 30 31 32
36 44 32 29 24 34 39 43 41 38 29 34 23 26 16 15 19 17 18 20 23 27 23 21 20 22 22 19 18 16 15 16 16 17 21 25 27 27 28 27 27 26 32 34
33 44 47 35 52 35 32 39 42 41 38 32 39 25 20 23 20 18 22 25 23 23 24 21 19 19 26 25 23 21 19 19 17 16 16 18 21 25 26 28 29 28 28 33
37 41 45 53 45 28 34 37 40 45 51 41 39 35 32 25 24 22 25 29 29 26 24 21 20 19 22 25 29 27 23 24 23 20 20 20 19 21 24 27 29 30 31 30
37 38 41 42 40 40 34 33 38 45 44 48 41 35 31 29 30 29 29 33 34 32 26 21 20 17 18 26 29 32 30 28 26 27 27 27 24 23 24 28 29 30 31 32
23 37 29 37 34 40 36 38 39 36 37 38 42 40 31 27 25 28 29 34 38 37 33 27 22 19 19 20 23 31 31 33 34 32 31 32 30 28 28 28 32 34 32 33
14 31 32 31 29 22 40 40 39 36 35 35 34 28 30 29 28 30 28 34 36 37 34 29 23 22 22 24 23 25 29 31 33 37 35 33 34 34 30 30 30 34 33 34
23 21 27 28 28 19 24 23 39 39 39 32 30 24 28 29 29 32 34 36 33 34 31 27 26 26 27 26 25 25 25 27 28 28 28 31 36 37 36 33 31 33 34 34
21 23 21 24 26 24 31 21 26 23 37 36 35 32 31 30 31 32 32 32 31 27 25 27 28 29 28 27 27 28 29 29 30 30 30 31 32 35 38 37 34 33 33 33
20 19 18 19 25 26 21 24 22 25 24 27 27 33 32 30 25 29 33 31 27 27 28 29 29 28 28 28 29 30 30 31 31 31 30 31 32 34 37 37 33 29 29 30
20 18 16 14 9 11 20 20 22 23 26 15 23 30 34 36 34 31 26 29 29 29 28 27 26 27 28 27 27 28 30 31 31 29 28 29 31 31 32 31 29 24 24 26
24 22 21 16 12 9 15 16 26 22 21 19 20 28 30 31 31 28 26 26 25 25 24 26 26 25 24 24 24 25 25 24 24 25 26 26 27 27 27 28 32 36 37 39
27 25 23 20 23 22 22 17 16 22 13 16 22 27 30 30 28 26 24 23 22 23 23 23 22 22 21 20 20 20 22 24 25 26 26 26 27 27 28 28 28 28 28 29
34 29 29 28 24 25 25 29 30 28 29 27 25 24 21 21 22 22 22 23 23 22 22 22 22 22 22 22 22 23 24 25 25 25 25 26 28 28 30 31 30 30 32 31
30 24 27 27 35 30 24 25 28 23 26 24 23 26 25 22 21 21 22 23 22 21 21 21 22 22 22 22 23 24 24 25 27 29 31 33 35 37 38 39 40 39 39 39
Wind_Direction
208 211 216 217 220 227 238 227 227 233 233 224 244 258 260 250 249 240 234 237 227 206 216 238 246 292 218 215 207 200 198 197 191 190 193 201 200 209 213 219 223 225 230 232
218 225 225 222 225 223 223 223 230 235 232 231 248 259 255 243 236 231 241 242 239 222 219 224 230 254 222 215 207 209 206 199 195 196 202 211 196 202 213 225 225 225 227 229
220 231 224 221 219 220 224 227 230 234 233 242 244 256 249 242 219 223 233 258 254 231 222 219 221 225 230 223 218 213 213 204 203 204 207 217 210 207 205 229 231 228 228 230
236 231 226 223 225 220 224 226 230 236 241 250 232 254 238 229 227 233 246 249 261 235 223 223 214 216 222 225 220 215 217 216 211 209 213 215 213 203 206 213 220 223 224 228
230 219 220 224 226 220 228 230 232 236 245 249 235 244 248 211 235 243 245 249 244 236 220 213 209 203 208 225 224 222 221 223 225 223 216 225 227 223 245 225 222 226 224 226
235 236 228 234 226 222 224 224 226 231 240 241 235 236 244 229 241 250 254 233 232 220 206 203 208 215 219 225 227 224 227 228 232 237 233 234 229 235 254 234 224 226 224 223
230 227 230 226 223 216 211 213 225 228 226 240 237 233 235 237 234 260 237 238 218 203 202 193 192 217 229 235 233 230 232 236 240 242 241 239 237 228 227 245 228 222 225 225
222 224 220 222 219 211 207 209 210 222 227 233 215 231 237 236 240 248 235 213 209 208 205 195 194 202 226 232 233 233 233 235 232 232 238 241 241 223 251 244 247 230 229 232
225 231 230 219 214 212 214 216 220 241 267 263 216 230 240 218 238 231 222 205 216 212 212 201 197 201 219 243 240 235 231 231 238 237 236 245 246 235 253 243 251 239 236 239
227 240 224 216 209 219 218 222 211 225 229 234 236 231 234 220 224 212 213 209 212 213 216 208 201 209 231 237 240 234 233 235 234 239 240 242 249 244 233 246 254 250 245 248
223 227 218 209 210 211 210 212 215 217 219 228 236 228 229 228 222 217 211 212 215 214 215 204 206 215 240 231 244 245 242 246 250 247 244 242 239 236 242 251 257 257 249 248
220 224 222 218 224 222 222 218 207 209 209 228 239 241 199 222 221 217 210 220 221 208 197 207 211 231 226 226 228 246 244 245 248 249 247 245 243 241 247 255 261 261 253 250
221 218 224 223 218 220 220 219 220 222 226 224 221 226 228 198 188 193 195 199 200 194 202 213 223 234 235 237 230 241 251 244 243 248 252 252 253 253 257 260 261 264 255 254
221 220 218 215 219 213 215 215 216 216 222 224 227 223 205 206 209 210 205 202 203 213 219 221 242 241 244 240 237 241 244 237 238 244 251 255 257 255 260 260 261 264 264 259
218 220 225 229 230 226 222 216 213 215 225 224 229 229 228 227 223 220 220 218 214 215 219 233 232 240 243 246 244 241 243 241 241 247 253 258 263 263 261 261 264 265 265 266
221 221 225 232 229 226 225 223 219 223 226 231 234 238 239 237 234 226 231 227 223 221 224 229 231 254 250 245 249 242 241 242 246 248 249 252 258 261 265 265 265 265 263 263
220 211 215 226 224 224 227 221 219 222 224 227 230 233 233 229 227 236 236 225 225 223 227 232 236 256 259 255 250 249 246 245 244 249 254 255 255 257 261 265 265 263 266 265
225 216 211 224 216 222 229 230 226 228 230 227 230 227 230 233 238 229 231 222 218 225 228 232 239 246 250 250 245 250 250 253 253 252 254 257 258 260 262 262 263 261 263 265
212 218 211 213 203 214 219 215 214 220 227 224 217 220 222 229 225 227 224 220 221 223 227 233 241 244 244 243 245 249 251 254 256 257 258 260 260 260 261 261 262 255 257 263
216 198 217 203 211 219 226 218 217 216 232 226 226 224 232 228 222 222 219 220 223 227 233 238 238 238 240 245 251 257 260 259 257 260 265 269 270 265 262 261 259 259 258 261
196 208 211 199 203 212 208 220 206 189 230 220 224 228 226 224 210 220 217 216 225 230 232 236 237 242 248 252 256 258 260 264 268 269 269 269 268 264 259 256 258 257 259 262
196 189 199 220 218 197 207 205 191 212 221 210 215 221 218 215 215 218 215 217 222 226 230 237 246 252 255 256 257 258 261 264 267 270 269 265 259 256 257 258 257 254 266 271
232 224 214 212 213 212 212 201 199 203 221 211 204 209 209 213 216 217 214 214 218 228 236 242 244 246 249 249 250 254 259 262 261 260 259 256 256 257 257 264 269 274 273 270
231 229 227 231 230 236 227 219 217 217 192 191 200 206 209 213 211 209 210 218 224 228 229 234 237 239 242 246 248 247 245 247 250 254 258 262 264 264 265 266 267 266 264 263
219 210 212 216 222 229 228 226 227 226 235 242 240 229 228 218 210 217 222 222 221 222 226 232 238 242 244 247 249 249 248 249 251 256 260 265 267 267 267 267 267 267 268 269
216 228 220 230 230 222 221 221 208 202 198 193 201 199 201 203 209 211 212 216 222 227 232 240 246 249 248 247 247 248 249 252 255 256 259 264 270 272 272 272 272 270 269 268
Height
3144 3147 3143 3149 3153 3155 3157 3158 3160 3162 3162 3164 3164 3164 3164 3164 3162 3162 3162 3162 3162 3162 3163 3164 3164 3164 3164 3165 3167 3169 3170 3171 3172 3173 3174 3174 3175 3177 3178 3179 3180 3180 3181 3182
3139 3135 3144 3147 3149 3151 3153 3155 3156 3158 3158 3160 3160 3159 3159 3160 3159 3158 3158 3158 3158 3158 3159 3161 3161 3162 3162 3163 3165 3167 3168 3169 3170 3170 3171 3173 3172 3173 3175 3176 3177 3178 3179 3180
3131 3134 3139 3140 3141 3145 3147 3150 3152 3154 3155 3155 3156 3154 3153 3154 3155 3154 3155 3155 3155 3155 3156 3157 3158 3159 3159 3161 3163 3165 3166 3168 3168 3169 3169 3170 3170 3170 3171 3174 3175 3176 3177 3178
3127 3132 3132 3133 3133 3139 3141 3145 3148 3150 3151 3149 3149 3145 3143 3148 3150 3150 3151 3151 3151 3152 3153 3153 3154 3156 3157 3158 3160 3161 3163 3165 3166 3166 3167 3168 3169 3169 3169 3170 3172 3174 3175 3175
3115 3121 3124 3125 3126 3134 3135 3142 3143 3145 3145 3145 3143 3145 3139 3141 3144 3145 3147 3147 3146 3148 3149 3150 3151 3152 3154 3154 3156 3158 3160 3161 3162 3164 3164 3165 3166 3166 3167 3168 3169 3171 3171 3172
3114 3117 3119 3119 3125 3128 3135 3137 3139 3140 3140 3135 3137 3137 3133 3133 3138 3140 3140 3140 3139 3143 3146 3148 3149 3150 3151 3152 3153 3155 3156 3157 3159 3160 3161 3162 3163 3163 3164 3166 3166 3167 3168 3169
3108 3107 3110 3114 3120 3123 3127 3132 3131 3131 3128 3124 3129 3130 3128 3129 3132 3133 3135 3134 3134 3138 3142 3144 3146 3147 3148 3149 3150 3151 3152 3153 3154 3156 3157 3158 3159 3159 3160 3163 3163 3164 3165 3166
3098 3099 3100 3102 3108 3113 3115 3121 3119 3119 3116 3119 3123 3122 3121 3125 3128 3128 3129 3129 3131 3134 3138 3141 3143 3144 3145 3146 3147 3148 3148 3149 3150 3152 3153 3154 3155 3155 3156 3158 3160 3160 3161 3162
3090 3086 3094 3097 3102 3108 3109 3107 3115 3116 3116 3113 3110 3116 3117 3119 3122 3123 3125 3126 3129 3131 3134 3137 3139 3141 3142 3143 3144 3145 3145 3145 3146 3148 3149 3150 3151 3151 3152 3154 3155 3156 3157 3158
3085 3085 3087 3092 3098 3098 3100 3107 3110 3109 3111 3109 3105 3105 3109 3112 3116 3118 3121 3123 3125 3127 3130 3133 3135 3137 3139 3140 3140 3140 3140 3141 3143 3144 3145 3146 3147 3147 3148 3149 3151 3152 3153 3153
3079 3081 3082 3086 3081 3086 3093 3094 3097 3102 3102 3099 3098 3097 3104 3108 3111 3113 3117 3118 3120 3123 3125 3128 3131 3133 3135 3136 3136 3136 3137 3137 3137 3139 3140 3141 3142 3143 3144 3145 3146 3146 3147 3148
3063 3072 3073 3070 3078 3081 3083 3084 3089 3089 3092 3095 3094 3095 3097 3102 3106 3108 3112 3113 3116 3118 3121 3124 3127 3129 3131 3132 3133 3133 3133 3133 3134 3135 3135 3136 3137 3138 3139 3139 3140 3140 3140 3142
3057 3062 3064 3068 3073 3069 3068 3075 3081 3086 3089 3085 3090 3090 3093 3097 3100 3103 3107 3109 3113 3115 3118 3121 3123 3125 3127 3128 3128 3129 3129 3130 3130 3130 3131 3132 3132 3133 3133 3134 3134 3134 3134 3135
3051 3049 3050 3048 3041 3059 3063 3065 3071 3077 3078 3078 3077 3087 3088 3093 3097 3100 3103 3106 3110 3112 3114 3117 3119 3120 3121 3122 3123 3124 3125 3126 3126 3126 3126 3126 3127 3128 3128 3128 3128 3128 3128 3128
3039 3038 3042 3040 3048 3052 3053 3056 3062 3065 3061 3071 3073 3078 3083 3087 3091 3095 3098 3100 3103 3106 3109 3111 3113 3114 3115 3116 3117 3118 3119 3120 3121 3121 3121 3121 3122 3121 3121 3121 3121 3121 3121 3121
3026 3028 3033 3034 3040 3044 3045 3048 3053 3053 3059 3060 3069 3069 3077 3081 3085 3086 3090 3093 3096 3099 3102 3104 3106 3108 3108 3109 3110 3111 3113 3114 3115 3115 3115 3115 3116 3116 3115 3115 3115 3114 3114 3114
3017 3020 3024 3024 3031 3035 3038 3037 3040 3046 3050 3054 3056 3063 3068 3072 3075 3078 3081 3085 3088 3092 3095 3098 3100 3101 3101 3102 3103 3104 3105 3106 3108 3108 3108 3108 3108 3108 3108 3108 3108 3107 3108 3108
3007 3012 3016 3016 3023 3025 3020 3031 3035 3039 3042 3046 3051 3057 3061 3065 3068 3070 3073 3076 3080 3085 3088 3091 3093 3094 3095 3095 3096 3097 3098 3098 3099 3099 3100 3100 3100 3100 3100 3100 3100 3100 3101 3100
2999 3004 3008 3010 3013 3016 3017 3019 3023 3027 3031 3038 3043 3049 3052 3055 3059 3062 3065 3069 3073 3077 3081 3084 3086 3087 3088 3089 3090 3091 3091 3091 3091 3091 3091 3091 3091 3091 3091 3091 3092 3091 3091 3093
2993 2996 3002 3002 3005 3005 3009 3013 3018 3025 3023 3029 3035 3039 3043 3048 3051 3055 3059 3063 3067 3070 3074 3076 3078 3080 3081 3082 3083 3084 3084 3084 3084 3083 3083 3083 3083 3083 3082 3082 3082 3082 3082 3083
2986 2991 2992 2994 2996 3002 3001 3005 3012 3017 3017 3021 3026 3031 3036 3041 3046 3047 3051 3056 3060 3063 3066 3068 3070 3072 3074 3075 3076 3076 3076 3076 3075 3075 3075 3075 3074 3074 3073 3073 3074 3074 3074 3074
2977 2983 2984 2991 2991 2994 2997 3001 3007 3009 3011 3016 3020 3023 3028 3031 3037 3040 3045 3049 3053 3056 3058 3061 3063 3064 3066 3067 3068 3068 3068 3068 3067 3067 3067 3067 3066 3066 3066 3066 3066 3066 3066 3067
2978 2978 2981 2986 2987 2989 2992 2995 3000 3003 3007 3010 3014 3018 3022 3027 3031 3035 3039 3042 3046 3049 3052 3054 3055 3057 3058 3059 3060 3060 3060 3061 3061 3060 3060 3060 3060 3060 3059 3059 3059 3058 3058 3057
2971 2974 2977 2982 2983 2985 2990 2995 2998 3002 3005 3008 3011 3014 3018 3022 3026 3029 3033 3036 3039 3042 3044 3046 3048 3049 3051 3052 3053 3053 3053 3053 3053 3053 3053 3053 3052 3052 3051 3050 3050 3049 3049 3048
2967 2968 2975 2977 2978 2982 2986 2990 2994 2998 3002 3005 3010 3012 3016 3021 3023 3025 3027 3030 3032 3035 3038 3040 3041 3043 3043 3044 3045 3046 3046 3047 3046 3046 3046 3045 3044 3044 3043 3043 3042 3042 3041 3040
2951 2956 2960 2966 2970 2975 2980 2985 2989 2993 2995 2999 3004 3006 3009 3014 3016 3018 3021 3023 3027 3029 3032 3034 3035 3035 3036 3037 3038 3038 3039 3039 3039 3039 3038 3037 3036 3034 3033 3032 3032 3032 3030 3030